FENGYUN 1C DEB, 30622

Orbit data source: Space-Track

FENGYUN 1C DEB, 30622 is space debris in SSO originally from a launch on Mon, 10 May 1999 UTC launched from the Taiyaun Space Center, China (TSC). Fengyun 1C debris stems from the Chinese weather satellite Fengyun-1C, which was intentionally destroyed by a Chinese anti-satellite missile in 2007. This event dramatically increased the amount of space debris, with thousands of trackable fragments posing hazards to satellites and human spaceflight. The Fengyun 1C debris cloud has become a focal point in discussions about space sustainability and the need for international regulations to prevent the creation of new debris.

Loading next visibility...
Identifier
30622, 1999-025AND
Orbit
SSO
Country
Flag of CNCN / PRC
Related business
Manufacturer
Unknown
Mission
Spacecraft
Bus & Motor
Unknown
Mass
Unknown
Launch date (UTC)
1999-05-10 (27 years ago)
Launch vehicle
Unknown
Launch site
Taiyaun Space Center, China (TSC)
Object type
Payload
Rocket body
Debris
Shape & HBR
Unknown shape, 0.1 m
Radar Cross Section
Small (<0.1 m²)

Expand to show TLE details & history
Last TLE update: 2 days ago

TLE from 2 days ago
0 FENGYUN 1C DEB
1 30622U 99025AND 26165.01400990  .00006555  00000-0  23020-2 0  9991
2 30622 100.9924 230.3525 0069723 234.9645 249.1242 14.34067056714226
Epoch: 2026-06-14T00:20Z
TLE epoch observation values (Epoch: 2026-06-14T00:20:10.455Z)
Latitude
55.19269°
Longitude
159.12424°
Altitude
805.293 km
Speed
7.447 km/s
True Right ascension
04h 25m 57s
True Declination
55° 01' 57"
Sunlit
Object was in daylight at epoch
Visualization orbit readout
Latitude
Unknown
Longitude
Unknown
Altitude
Unknown
Speed
Unknown
Apparent Right ascension
Unknown
Apparent Declination
Unknown
Sunlit
N/A
Visualization observer readout
Local Sidereal Time
05:14:39
Azimuth
Unknown
Elevation
Unknown
Doppler factor
Unknown
Orbital elements
Apogee altitude
825.309 km
Perigee altitude
725.555 km
Semi-major axis
7,153.569 km
Eccentricity
0.00697
Inclination
100.9924°
RAAN
230.3525°
Arg. of periapsis
234.9645°
True anomaly
248.38001°
Mean anomaly
249.1242°
Eccentric anomaly
248.75187°
Mean motion
3.58723 °/min
Orbital period
100.36 mins
BSTAR
0.002302
Loading maneuver chart data...
Computing Atmospheric mass density...
Loading historical data...
Loading historical data...
Loading historical data...
Loading historical data...
Loading historical data...
Loading historical data...
Loading historical data...

Documentation

Showing up to 5 results
|